CCA1628 ZYCC-ZBAA

Flight info

Callsign CCA1628
Flight time N/A
Altitude 30100
Route BUTET G341 TGO G212 UKDUM W49 OSUBA
Aircraft B737/M-SDE3FGHIRWY/LB1

Departure

Time 2026-04-21 11:20
Airport Changchun Longjia International Airport (ZYCC)

Arrival

Time N/A
Airport Beijing Capital International Airport (ZBAA)
Time Latitude Longitude Altitude Speed Heading
2026-04-21 11:04 43.99401 125.69003 715 ft 0 kts 139°
2026-04-21 11:11 43.99408 125.68995 715 ft 2 kts 138°
2026-04-21 11:12 43.99420 125.68980 715 ft 2 kts 136°
2026-04-21 11:12 43.99431 125.68964 715 ft 2 kts 134°
2026-04-21 11:12 43.99443 125.68948 715 ft 2 kts 130°
2026-04-21 11:12 43.99453 125.68930 715 ft 2 kts 122°
2026-04-21 11:13 43.99460 125.68911 715 ft 2 kts 102°
2026-04-21 11:13 43.99461 125.68892 715 ft 2 kts 58°
2026-04-21 11:13 43.99451 125.68876 715 ft 2 kts 49°
2026-04-21 11:13 43.99450 125.68874 715 ft 0 kts 49°
2026-04-21 11:15 43.99451 125.68875 715 ft 2 kts 49°
2026-04-21 11:15 43.99509 125.68968 715 ft 22 kts 49°
2026-04-21 11:16 43.99582 125.69045 715 ft 12 kts 338°
2026-04-21 11:16 43.99655 125.68968 715 ft 11 kts 330°
2026-04-21 11:16 43.99729 125.69023 715 ft 20 kts 47°
2026-04-21 11:16 43.99848 125.69211 715 ft 29 kts 49°
2026-04-21 11:17 43.99978 125.69418 715 ft 27 kts 48°
2026-04-21 11:17 44.00102 125.69617 715 ft 29 kts 49°
2026-04-21 11:17 44.00228 125.69817 715 ft 26 kts 48°
2026-04-21 11:17 44.00340 125.69997 715 ft 23 kts 49°
2026-04-21 11:18 44.00424 125.70133 715 ft 10 kts 44°
2026-04-21 11:18 44.00495 125.70101 715 ft 14 kts 317°
2026-04-21 11:18 44.00555 125.70028 715 ft 9 kts 312°
2026-04-21 11:18 44.00536 125.69956 715 ft 7 kts 227°
2026-04-21 11:19 44.00535 125.69954 715 ft 0 kts 227°
2026-04-21 11:19 44.00529 125.69944 715 ft 11 kts 227°
2026-04-21 11:19 44.00337 125.69631 715 ft 73 kts 229°
2026-04-21 11:19 43.99862 125.68877 715 ft 132 kts 229°
2026-04-21 11:20 43.99163 125.67777 907 ft 161 kts 230°
2026-04-21 11:20 43.98397 125.66633 1565 ft 163 kts 232°
2026-04-21 11:20 43.97677 125.65466 2316 ft 149 kts 238°
2026-04-21 11:20 43.97077 125.64426 3061 ft 137 kts 240°
2026-04-21 11:21 43.96449 125.63346 3448 ft 148 kts 238°
2026-04-21 11:21 43.95777 125.62218 3797 ft 161 kts 238°
2026-04-21 11:21 43.95034 125.60974 4106 ft 174 kts 238°
2026-04-21 11:21 43.94315 125.59766 4375 ft 187 kts 238°
2026-04-21 11:22 43.93580 125.58530 5029 ft 184 kts 238°
2026-04-21 11:22 43.92747 125.57163 5794 ft 187 kts 237°
2026-04-21 11:22 43.91885 125.55794 6585 ft 189 kts 237°
2026-04-21 11:22 43.91016 125.54415 7384 ft 191 kts 238°
2026-04-21 11:23 43.90131 125.53017 8193 ft 194 kts 238°
2026-04-21 11:23 43.89348 125.51780 8902 ft 196 kts 238°
2026-04-21 11:23 43.88444 125.50353 9722 ft 198 kts 238°
2026-04-21 11:23 43.87638 125.49080 10431 ft 200 kts 239°
2026-04-21 11:24 43.86713 125.47622 11216 ft 203 kts 239°
2026-04-21 11:24 43.85775 125.46143 11989 ft 205 kts 239°
2026-04-21 11:24 43.84826 125.44649 12759 ft 208 kts 240°
2026-04-21 11:24 43.83863 125.43132 13531 ft 211 kts 240°
2026-04-21 11:25 43.82891 125.41602 14364 ft 212 kts 240°
2026-04-21 11:25 43.81915 125.40065 15229 ft 212 kts 241°
2026-04-21 11:25 43.80938 125.38529 16087 ft 213 kts 242°
2026-04-21 11:25 43.79960 125.36989 16924 ft 214 kts 242°
2026-04-21 11:26 43.79102 125.35361 17738 ft 202 kts 256°
2026-04-21 11:26 43.78742 125.33547 18569 ft 193 kts 268°
2026-04-21 11:26 43.78594 125.31708 19406 ft 192 kts 271°
2026-04-21 11:26 43.78506 125.29868 20227 ft 191 kts 270°
2026-04-21 11:27 43.78416 125.28039 21030 ft 190 kts 270°
2026-04-21 11:27 43.78320 125.26211 21815 ft 190 kts 269°
2026-04-21 11:27 43.78220 125.24392 22576 ft 190 kts 269°
2026-04-21 11:27 43.78120 125.22590 23289 ft 191 kts 269°
2026-04-21 11:28 43.78015 125.20731 23858 ft 197 kts 268°
2026-04-21 11:28 43.77907 125.18822 24430 ft 202 kts 268°
2026-04-21 11:28 43.77797 125.16867 25002 ft 206 kts 268°
2026-04-21 11:28 43.77683 125.14871 25562 ft 210 kts 268°
2026-04-21 11:29 43.77567 125.12835 26109 ft 215 kts 268°
2026-04-21 11:29 43.77456 125.10756 26616 ft 220 kts 268°
2026-04-21 11:29 43.77345 125.08598 26955 ft 231 kts 268°
2026-04-21 11:29 43.77222 125.06309 27130 ft 247 kts 268°
2026-04-21 11:30 43.77085 125.03864 27300 ft 262 kts 268°
2026-04-21 11:30 43.76938 125.01281 27461 ft 277 kts 267°
2026-04-21 11:30 43.76781 124.98562 27615 ft 290 kts 267°
2026-04-21 11:30 43.76615 124.95715 27743 ft 304 kts 267°
2026-04-21 11:31 43.76441 124.92741 27856 ft 317 kts 267°
2026-04-21 11:31 43.76260 124.89653 28076 ft 326 kts 267°
2026-04-21 11:31 43.76075 124.86506 28410 ft 331 kts 267°
2026-04-21 11:31 43.75889 124.83325 28821 ft 333 kts 267°
2026-04-21 11:32 43.75705 124.80120 29280 ft 334 kts 267°
2026-04-21 11:32 43.75534 124.76900 29661 ft 338 kts 267°
2026-04-21 11:32 43.75153 124.70336 29765 ft 348 kts 266°
2026-04-21 11:33 43.74745 124.63641 29789 ft 349 kts 266°
2026-04-21 11:33 43.74332 124.56978 29800 ft 348 kts 266°
2026-04-21 11:34 43.73919 124.50316 29803 ft 347 kts 266°
2026-04-21 11:34 43.72842 124.43796 29804 ft 352 kts 253°
2026-04-21 11:35 43.71066 124.37539 29805 ft 353 kts 248°
2026-04-21 11:35 43.68955 124.31450 29806 ft 348 kts 257°
2026-04-21 11:36 43.68070 124.24939 29807 ft 346 kts 265°
2026-04-21 11:36 43.67549 124.18345 29810 ft 344 kts 266°
2026-04-21 11:37 43.67109 124.11761 29810 ft 344 kts 266°
2026-04-21 11:37 43.66695 124.05183 29811 ft 343 kts 266°
2026-04-21 11:38 43.66290 123.98611 29812 ft 343 kts 266°
2026-04-21 11:38 43.65889 123.92061 29815 ft 342 kts 266°
2026-04-21 11:39 43.65487 123.85520 29815 ft 342 kts 266°
2026-04-21 11:39 43.65117 123.78987 29816 ft 341 kts 267°
2026-04-21 11:40 43.64754 123.72508 29819 ft 340 kts 266°